THOR ABLESTAR DEB, 414

Orbit data source: Space-Track

THOR ABLESTAR DEB, 414 is space debris in LEO originally from a launch on Thu, 29 Jun 1961 UTC launched from the Air Force Eastern Test Range (AFETR). Debris objects in space refer to the collection of defunct objects orbiting the Earth. Examples of debris include non-operational satellites, rocket bodies, and fragments generated from explosions, collisions, or faulty payload assembly.

Loading next visibility...
Identifier
414, 1961-015EP
Orbit
LEO
Country
Flag of USUS
Related business
Manufacturer
Unknown
Mission
Spacecraft
Bus & Motor
Unknown
Mass
Unknown
Launch date (UTC)
1961-06-29 (65 years ago)
Launch vehicle
Unknown
Launch site
Air Force Eastern Test Range (AFETR)
Object type
Payload
Rocket body
Debris
Shape & HBR
Unknown shape, 0.2 m
Radar Cross Section
Medium (>0.1 m² and <1 m²)

Expand to show TLE details & history
Last TLE update: 6 hours ago

TLE from 6 hours ago
0 THOR ABLESTAR DEB
1 00414U 61015EP  26070.94576332  .00000037  00000-0  11288-3 0  9999
2 00414  66.4469 342.3214 0046820 182.6878 257.0998 13.77587060248632
Epoch: 2026-03-11T22:41Z
TLE epoch observation values (Epoch: 2026-03-11T22:41:53.950Z)
Latitude
64.35484°
Longitude
-103.16405°
Altitude
990.524 km
Speed
7.359 km/s
True Right ascension
03h 07m 39s
True Declination
64° 13' 29"
Sunlit
Object was in daylight at epoch
Visualization orbit readout
Latitude
Unknown
Longitude
Unknown
Altitude
Unknown
Speed
Unknown
Apparent Right ascension
Unknown
Apparent Declination
Unknown
Sunlit
N/A
Visualization observer readout
Local Sidereal Time
08:40:47
Azimuth
Unknown
Elevation
Unknown
Doppler factor
Unknown
Orbital elements
Apogee altitude
1,005.31 km
Perigee altitude
936.493 km
Semi-major axis
7,349.039 km
Eccentricity
0.00468
Inclination
66.4469°
RAAN
342.3214°
Arg. of periapsis
182.6878°
True anomaly
256.57751°
Mean anomaly
257.0998°
Eccentric anomaly
256.83859°
Mean motion
3.44506 °/min
Orbital period
104.5 mins
BSTAR
0.00011288
Loading maneuver chart data...
Computing Atmospheric mass density...

Documentation

Showing up to 5 results
|